Location: Presov
(49.0000°N, 21.2500°E)
Time: 12:30:54
(UTC+02:00)

ISS - Pass Details

Date: 30 March 2019
Orbit: 408 x 410 km, 51.6° (Epoch: 25 April)

Event Time Altitude Azimuth Distance (km) Brightness Sun altitude
Rises 19:15:00 0° 279° (W) 2,337 1.8 -12.4°
Reaches altitude 10° 19:17:08 10° 285° (WNW) 1,475 0.5 -12.7°
Maximum altitude 19:20:22 51° 2° (N) 521 -3.2 -13.2°
Enters shadow 19:22:26 20° 73° (ENE) 1,021 -2.3 -13.5°
